Time,TemperatureF,DewpointF,PressureIn,WindDirection,WindDirectionDegrees,WindSpeedMPH,WindSpeedGustMPH,Humidity,HourlyPrecipIn,Conditions,Clouds,dailyrainin,SoftwareType,DateUTC
2013-06-30 00:02:00,83.9,23.7,29.64,WNW,290,0.0,0.0,11,0.00,,,0.00,Wunderground v.1.15,2013-06-30 07:02:00,
2013-06-30 00:08:00,84.2,26.1,29.64,West,261,1.0,10.0,12,0.00,,,0.00,Wunderground v.1.15,2013-06-30 07:08:00,
2013-06-30 00:14:00,84.7,28.4,29.64,WSW,248,4.0,8.0,13,0.00,,,0.00,Wunderground v.1.15,2013-06-30 07:14:00,
2013-06-30 00:20:00,84.9,30.4,29.64,West,259,3.0,8.0,14,0.00,,,0.00,Wunderground v.1.15,2013-06-30 07:20:00,
2013-06-30 00:25:00,84.6,31.8,29.64,WNW,288,2.0,8.0,15,0.00,,,0.00,Wunderground v.1.15,2013-06-30 07:25:00,
2013-06-30 00:31:00,84.5,33.4,29.64,NW,305,1.0,2.0,16,0.00,,,0.00,Wunderground v.1.15,2013-06-30 07:31:00,
2013-06-30 00:37:00,84.2,33.1,29.64,SW,227,0.0,2.0,16,0.00,,,0.00,Wunderground v.1.15,2013-06-30 07:37:00,
2013-06-30 00:43:00,83.7,34.2,29.64,NW,324,0.0,0.0,17,0.00,,,0.00,Wunderground v.1.15,2013-06-30 07:43:00,
2013-06-30 00:48:00,83.4,34.0,29.64,WNW,301,0.0,0.0,17,0.00,,,0.00,Wunderground v.1.15,2013-06-30 07:48:00,
2013-06-30 00:54:00,83.2,35.3,29.64,WNW,285,0.0,0.0,18,0.00,,,0.00,Wunderground v.1.15,2013-06-30 07:54:00,
2013-06-30 01:00:00,82.7,34.9,29.65,West,268,0.0,0.0,18,0.00,,,0.00,Wunderground v.1.15,2013-06-30 08:00:00,
2013-06-30 01:06:00,82.4,34.6,29.65,WNW,285,0.0,0.0,18,0.00,,,0.00,Wunderground v.1.15,2013-06-30 08:06:00,
2013-06-30 01:12:00,82.4,34.6,29.65,West,278,0.0,0.0,18,0.00,,,0.00,Wunderground v.1.15,2013-06-30 08:12:00,
2013-06-30 01:17:00,82.2,35.8,29.64,WNW,288,0.0,0.0,19,0.00,,,0.00,Wunderground v.1.15,2013-06-30 08:17:00,
2013-06-30 01:23:00,81.9,35.6,29.64,WSW,246,1.0,6.0,19,0.00,,,0.00,Wunderground v.1.15,2013-06-30 08:23:00,
2013-06-30 01:29:00,82.1,35.7,29.64,West,264,4.0,11.0,19,0.00,,,0.00,Wunderground v.1.15,2013-06-30 08:29:00,
2013-06-30 01:35:00,82.4,36.0,29.64,WNW,302,6.0,9.0,19,0.00,,,0.00,Wunderground v.1.15,2013-06-30 08:35:00,
2013-06-30 01:41:00,82.3,35.9,29.64,West,278,6.0,6.0,19,0.00,,,0.00,Wunderground v.1.15,2013-06-30 08:41:00,
2013-06-30 01:46:00,82.3,35.9,29.65,WNW,287,5.0,8.0,19,0.00,,,0.00,Wunderground v.1.15,2013-06-30 08:46:00,
2013-06-30 01:52:00,81.9,35.6,29.65,WNW,293,5.0,7.0,19,0.00,,,0.00,Wunderground v.1.15,2013-06-30 08:52:00,
2013-06-30 01:58:00,81.4,36.5,29.64,WNW,298,5.0,7.0,20,0.00,,,0.00,Wunderground v.1.15,2013-06-30 08:58:00,
2013-06-30 02:04:00,81.0,36.1,29.65,NNW,327,5.0,7.0,20,0.00,,,0.00,Wunderground v.1.15,2013-06-30 09:04:00,
2013-06-30 02:10:00,80.7,35.9,29.65,West,261,4.0,4.0,20,0.00,,,0.00,Wunderground v.1.15,2013-06-30 09:10:00,
2013-06-30 02:15:00,80.7,35.9,29.65,NNW,335,2.0,4.0,20,0.00,,,0.00,Wunderground v.1.15,2013-06-30 09:15:00,
2013-06-30 02:21:00,80.7,37.1,29.65,WSW,237,0.0,0.0,21,0.00,,,0.00,Wunderground v.1.15,2013-06-30 09:21:00,
2013-06-30 02:27:00,80.5,37.0,29.65,West,269,0.0,0.0,21,0.00,,,0.00,Wunderground v.1.15,2013-06-30 09:27:00,
2013-06-30 02:32:00,80.3,36.8,29.64,WNW,283,0.0,0.0,21,0.00,,,0.00,Wunderground v.1.15,2013-06-30 09:32:00,
2013-06-30 02:38:00,79.9,36.5,29.64,West,281,0.0,0.0,21,0.00,,,0.00,Wunderground v.1.15,2013-06-30 09:38:00,
2013-06-30 02:44:00,79.7,36.3,29.64,West,278,0.0,0.0,21,0.00,,,0.00,Wunderground v.1.15,2013-06-30 09:44:00,
2013-06-30 02:49:00,79.5,37.3,29.64,West,274,0.0,0.0,22,0.00,,,0.00,Wunderground v.1.15,2013-06-30 09:49:00,
2013-06-30 02:55:00,79.4,36.0,29.64,West,264,0.0,0.0,21,0.00,,,0.00,Wunderground v.1.15,2013-06-30 09:55:00,
2013-06-30 03:00:00,79.2,35.9,29.64,WNW,297,0.0,0.0,21,0.00,,,0.00,Wunderground v.1.15,2013-06-30 10:00:00,
2013-06-30 03:05:00,79.2,35.9,29.64,West,266,0.0,0.0,21,0.00,,,0.00,Wunderground v.1.15,2013-06-30 10:05:00,
2013-06-30 03:11:00,79.3,36.0,29.64,WNW,285,0.0,0.0,21,0.00,,,0.00,Wunderground v.1.15,2013-06-30 10:11:00,
2013-06-30 03:17:00,79.4,36.0,29.64,WSW,255,0.0,0.0,21,0.00,,,0.00,Wunderground v.1.15,2013-06-30 10:17:00,
2013-06-30 03:22:00,79.2,35.9,29.64,WNW,283,0.0,0.0,21,0.00,,,0.00,Wunderground v.1.15,2013-06-30 10:22:00,
2013-06-30 03:28:00,79.0,35.7,29.64,NW,326,0.0,0.0,21,0.00,,,0.00,Wunderground v.1.15,2013-06-30 10:28:00,
2013-06-30 03:34:00,78.6,35.4,29.64,WNW,294,0.0,0.0,21,0.00,,,0.00,Wunderground v.1.15,2013-06-30 10:34:00,
2013-06-30 03:40:00,78.1,35.0,29.64,WNW,295,0.0,0.0,21,0.00,,,0.00,Wunderground v.1.15,2013-06-30 10:40:00,
2013-06-30 03:45:00,77.9,34.8,29.64,WNW,284,0.0,0.0,21,0.00,,,0.00,Wunderground v.1.15,2013-06-30 10:45:00,
2013-06-30 03:51:00,77.4,35.6,29.64,WNW,300,0.0,0.0,22,0.00,,,0.00,Wunderground v.1.15,2013-06-30 10:51:00,
2013-06-30 03:57:00,77.4,35.6,29.64,WNW,292,0.0,0.0,22,0.00,,,0.00,Wunderground v.1.15,2013-06-30 10:57:00,
2013-06-30 04:03:00,77.1,35.3,29.64,West,264,0.0,0.0,22,0.00,,,0.00,Wunderground v.1.15,2013-06-30 11:03:00,
2013-06-30 04:08:00,77.0,35.2,29.64,WNW,300,0.0,0.0,22,0.00,,,0.00,Wunderground v.1.15,2013-06-30 11:08:00,
2013-06-30 04:14:00,77.2,35.4,29.65,WNW,297,0.0,0.0,22,0.00,,,0.00,Wunderground v.1.15,2013-06-30 11:14:00,
2013-06-30 04:20:00,76.7,35.0,29.65,West,278,0.0,0.0,22,0.00,,,0.00,Wunderground v.1.15,2013-06-30 11:20:00,
2013-06-30 04:25:00,76.8,35.1,29.65,WSW,249,0.0,0.0,22,0.00,,,0.00,Wunderground v.1.15,2013-06-30 11:25:00,
2013-06-30 04:31:00,76.6,36.0,29.65,WNW,286,0.0,0.0,23,0.00,,,0.00,Wunderground v.1.15,2013-06-30 11:31:00,
2013-06-30 04:37:00,76.8,36.2,29.65,NW,315,0.0,0.0,23,0.00,,,0.00,Wunderground v.1.15,2013-06-30 11:37:00,
2013-06-30 04:43:00,76.9,36.3,29.65,WNW,288,0.0,0.0,23,0.00,,,0.00,Wunderground v.1.15,2013-06-30 11:43:00,
2013-06-30 04:49:00,76.4,35.8,29.65,WNW,282,0.0,0.0,23,0.00,,,0.00,Wunderground v.1.15,2013-06-30 11:49:00,
2013-06-30 04:55:00,75.9,36.5,29.65,WSW,253,0.0,0.0,24,0.00,,,0.00,Wunderground v.1.15,2013-06-30 11:55:00,
2013-06-30 05:00:00,75.8,36.4,29.65,West,281,0.0,0.0,24,0.00,,,0.00,Wunderground v.1.15,2013-06-30 12:00:00,
2013-06-30 05:06:00,75.6,36.2,29.65,WNW,295,0.0,0.0,24,0.00,,,0.00,Wunderground v.1.15,2013-06-30 12:06:00,
2013-06-30 05:12:00,75.3,36.0,29.65,West,281,0.0,0.0,24,0.00,,,0.00,Wunderground v.1.15,2013-06-30 12:12:00,
2013-06-30 05:18:00,75.2,36.9,29.65,WNW,297,0.0,0.0,25,0.00,,,0.00,Wunderground v.1.15,2013-06-30 12:18:00,
2013-06-30 05:23:00,75.2,35.9,29.65,WNW,290,0.0,0.0,24,0.00,,,0.00,Wunderground v.1.15,2013-06-30 12:23:00,
2013-06-30 05:29:00,75.4,36.1,29.66,WNW,300,0.0,0.0,24,0.00,,,0.00,Wunderground v.1.15,2013-06-30 12:29:00,
2013-06-30 05:35:00,75.5,36.2,29.65,WNW,294,0.0,0.0,24,0.00,,,0.00,Wunderground v.1.15,2013-06-30 12:35:00,
2013-06-30 05:41:00,75.2,35.9,29.66,WSW,249,0.0,0.0,24,0.00,,,0.00,Wunderground v.1.15,2013-06-30 12:41:00,
2013-06-30 05:46:00,74.9,36.7,29.66,WNW,299,0.0,0.0,25,0.00,,,0.00,Wunderground v.1.15,2013-06-30 12:46:00,
2013-06-30 05:52:00,74.9,36.7,29.66,West,277,0.0,0.0,25,0.00,,,0.00,Wunderground v.1.15,2013-06-30 12:52:00,
2013-06-30 05:58:00,75.0,36.8,29.66,West,266,0.0,0.0,25,0.00,,,0.00,Wunderground v.1.15,2013-06-30 12:58:00,
2013-06-30 06:04:00,75.2,36.9,29.66,WNW,299,0.0,0.0,25,0.00,,,0.00,Wunderground v.1.15,2013-06-30 13:04:00,
2013-06-30 06:09:00,75.0,36.8,29.66,West,280,0.0,0.0,25,0.00,,,0.00,Wunderground v.1.15,2013-06-30 13:09:00,
2013-06-30 06:15:00,74.9,36.7,29.66,WNW,284,0.0,0.0,25,0.00,,,0.00,Wunderground v.1.15,2013-06-30 13:15:00,
2013-06-30 06:21:00,74.6,37.4,29.66,WNW,290,0.0,0.0,26,0.00,,,0.00,Wunderground v.1.15,2013-06-30 13:21:00,
2013-06-30 06:26:00,74.5,37.3,29.66,WNW,282,0.0,0.0,26,0.00,,,0.00,Wunderground v.1.15,2013-06-30 13:26:00,
2013-06-30 06:32:00,74.8,37.6,29.66,WNW,282,0.0,0.0,26,0.00,,,0.00,Wunderground v.1.15,2013-06-30 13:32:00,
2013-06-30 06:39:00,75.1,37.9,29.67,West,280,0.0,0.0,26,0.00,,,0.00,Wunderground v.1.15,2013-06-30 13:39:00,
2013-06-30 06:44:00,75.9,37.5,29.67,West,274,0.0,0.0,25,0.00,,,0.00,Wunderground v.1.15,2013-06-30 13:44:00,
2013-06-30 06:50:00,76.8,37.3,29.67,WNW,300,0.0,0.0,24,0.00,,,0.00,Wunderground v.1.15,2013-06-30 13:50:00,
2013-06-30 06:55:00,77.6,37.9,29.67,WNW,293,0.0,0.0,24,0.00,,,0.00,Wunderground v.1.15,2013-06-30 13:55:00,
2013-06-30 07:00:00,78.6,37.7,29.67,WNW,296,0.0,0.0,23,0.00,,,0.00,Wunderground v.1.15,2013-06-30 14:00:00,
2013-06-30 07:06:00,79.5,37.3,29.67,WNW,301,0.0,0.0,22,0.00,,,0.00,Wunderground v.1.15,2013-06-30 14:06:00,
2013-06-30 07:11:00,80.1,36.6,29.67,West,268,0.0,0.0,21,0.00,,,0.00,Wunderground v.1.15,2013-06-30 14:11:00,
2013-06-30 07:17:00,80.8,36.0,29.68,West,262,0.0,0.0,20,0.00,,,0.00,Wunderground v.1.15,2013-06-30 14:17:00,
2013-06-30 07:23:00,81.5,36.5,29.67,NW,311,1.0,4.0,20,0.00,,,0.00,Wunderground v.1.15,2013-06-30 14:23:00,
2013-06-30 07:28:00,82.0,35.7,29.67,WNW,295,1.0,4.0,19,0.00,,,0.00,Wunderground v.1.15,2013-06-30 14:28:00,
2013-06-30 07:34:00,82.6,36.1,29.67,WNW,298,0.0,1.0,19,0.00,,,0.00,Wunderground v.1.15,2013-06-30 14:34:00,
2013-06-30 07:40:00,82.9,36.4,29.68,WNW,290,0.0,0.0,19,0.00,,,0.00,Wunderground v.1.15,2013-06-30 14:40:00,
2013-06-30 07:45:00,83.0,35.1,29.68,WNW,295,0.0,0.0,18,0.00,,,0.00,Wunderground v.1.15,2013-06-30 14:45:00,
2013-06-30 07:51:00,83.4,36.8,29.68,WNW,300,1.0,1.0,19,0.00,,,0.00,Wunderground v.1.15,2013-06-30 14:51:00,
2013-06-30 07:57:00,83.8,35.8,29.68,WNW,284,1.0,1.0,18,0.00,,,0.00,Wunderground v.1.15,2013-06-30 14:57:00,
2013-06-30 08:03:00,83.9,35.8,29.68,WNW,293,0.0,0.0,18,0.00,,,0.00,Wunderground v.1.15,2013-06-30 15:03:00,
2013-06-30 08:08:00,84.3,34.7,29.68,West,264,0.0,0.0,17,0.00,,,0.00,Wunderground v.1.15,2013-06-30 15:08:00,
2013-06-30 08:14:00,84.6,35.0,29.68,WNW,285,0.0,0.0,17,0.00,,,0.00,Wunderground v.1.15,2013-06-30 15:14:00,
2013-06-30 08:20:00,85.0,35.3,29.68,WNW,282,0.0,0.0,17,0.00,,,0.00,Wunderground v.1.15,2013-06-30 15:20:00,
2013-06-30 08:26:00,85.4,34.1,29.68,West,270,0.0,0.0,16,0.00,,,0.00,Wunderground v.1.15,2013-06-30 15:26:00,
2013-06-30 08:32:00,85.4,34.1,29.68,West,263,0.0,0.0,16,0.00,,,0.00,Wunderground v.1.15,2013-06-30 15:32:00,
2013-06-30 08:37:00,85.8,34.4,29.68,WNW,295,0.0,0.0,16,0.00,,,0.00,Wunderground v.1.15,2013-06-30 15:37:00,
2013-06-30 08:43:00,86.2,33.1,29.68,West,274,0.0,0.0,15,0.00,,,0.00,Wunderground v.1.15,2013-06-30 15:43:00,
2013-06-30 08:49:00,86.3,33.2,29.68,NW,308,0.0,0.0,15,0.00,,,0.00,Wunderground v.1.15,2013-06-30 15:49:00,
2013-06-30 08:55:00,86.4,33.3,29.68,NW,311,0.0,0.0,15,0.00,,,0.00,Wunderground v.1.15,2013-06-30 15:55:00,
2013-06-30 09:00:00,86.9,33.7,29.67,WNW,295,0.0,0.0,15,0.00,,,0.00,Wunderground v.1.15,2013-06-30 16:00:00,
2013-06-30 09:02:00,87.1,33.8,29.67,WNW,298,0.0,0.0,15,0.00,,,0.00,Wunderground v.1.15,2013-06-30 16:02:00,
2013-06-30 09:08:00,87.4,34.1,29.67,WSW,250,0.0,0.0,15,0.00,,,0.00,Wunderground v.1.15,2013-06-30 16:08:00,
2013-06-30 09:14:00,87.5,34.1,29.67,WSW,256,0.0,0.0,15,0.00,,,0.00,Wunderground v.1.15,2013-06-30 16:14:00,
2013-06-30 09:20:00,87.9,34.5,29.67,West,265,1.0,1.0,15,0.00,,,0.00,Wunderground v.1.15,2013-06-30 16:20:00,
2013-06-30 09:25:00,88.5,33.2,29.67,WSW,242,2.0,2.0,14,0.00,,,0.00,Wunderground v.1.15,2013-06-30 16:25:00,
2013-06-30 09:31:00,88.5,33.2,29.67,NNW,339,2.0,2.0,14,0.00,,,0.00,Wunderground v.1.15,2013-06-30 16:31:00,
2013-06-30 09:37:00,88.5,33.2,29.67,NW,312,2.0,2.0,14,0.00,,,0.00,Wunderground v.1.15,2013-06-30 16:37:00,
2013-06-30 09:42:00,89.1,33.7,29.67,West,278,0.0,1.0,14,0.00,,,0.00,Wunderground v.1.15,2013-06-30 16:42:00,
2013-06-30 09:48:00,89.2,33.8,29.66,NW,309,0.0,1.0,14,0.00,,,0.00,Wunderground v.1.15,2013-06-30 16:48:00,
2013-06-30 09:54:00,89.5,34.0,29.66,West,266,0.0,0.0,14,0.00,,,0.00,Wunderground v.1.15,2013-06-30 16:54:00,
2013-06-30 10:00:00,90.2,36.3,29.66,NW,311,0.0,0.0,15,0.00,,,0.00,Wunderground v.1.15,2013-06-30 17:00:00,
2013-06-30 10:05:00,90.0,36.1,29.66,WNW,297,0.0,0.0,15,0.00,,,0.00,Wunderground v.1.15,2013-06-30 17:05:00,
2013-06-30 10:11:00,90.2,34.6,29.66,WNW,299,0.0,0.0,14,0.00,,,0.00,Wunderground v.1.15,2013-06-30 17:11:00,
2013-06-30 10:17:00,90.5,34.8,29.66,NW,319,0.0,0.0,14,0.00,,,0.00,Wunderground v.1.15,2013-06-30 17:17:00,
2013-06-30 10:23:00,90.9,35.1,29.66,NNW,335,0.0,0.0,14,0.00,,,0.00,Wunderground v.1.15,2013-06-30 17:23:00,
2013-06-30 10:29:00,91.5,35.6,29.65,WNW,301,0.0,0.0,14,0.00,,,0.00,Wunderground v.1.15,2013-06-30 17:29:00,
2013-06-30 10:34:00,91.8,35.8,29.65,WNW,288,0.0,0.0,14,0.00,,,0.00,Wunderground v.1.15,2013-06-30 17:34:00,
2013-06-30 10:40:00,92.2,36.1,29.65,SW,232,0.0,0.0,14,0.00,,,0.00,Wunderground v.1.15,2013-06-30 17:40:00,
2013-06-30 10:46:00,92.6,34.6,29.65,SW,219,0.0,0.0,13,0.00,,,0.00,Wunderground v.1.15,2013-06-30 17:46:00,
2013-06-30 10:51:00,92.9,34.8,29.65,NNW,339,0.0,0.0,13,0.00,,,0.00,Wunderground v.1.15,2013-06-30 17:51:00,
2013-06-30 10:57:00,92.6,34.6,29.64,WNW,303,0.0,0.0,13,0.00,,,0.00,Wunderground v.1.15,2013-06-30 17:57:00,
2013-06-30 11:03:00,92.9,34.8,29.64,NW,314,0.0,0.0,13,0.00,,,0.00,Wunderground v.1.15,2013-06-30 18:03:00,
2013-06-30 11:09:00,93.0,34.9,29.64,NNW,340,0.0,0.0,13,0.00,,,0.00,Wunderground v.1.15,2013-06-30 18:09:00,
2013-06-30 11:15:00,93.2,35.0,29.64,NW,317,0.0,0.0,13,0.00,,,0.00,Wunderground v.1.15,2013-06-30 18:15:00,
2013-06-30 11:21:00,93.7,35.4,29.64,West,269,0.0,0.0,13,0.00,,,0.00,Wunderground v.1.15,2013-06-30 18:21:00,
2013-06-30 11:26:00,94.8,34.3,29.64,SE,140,0.0,0.0,12,0.00,,,0.00,Wunderground v.1.15,2013-06-30 18:26:00,
2013-06-30 11:32:00,95.7,35.0,29.63,NW,315,0.0,0.0,12,0.00,,,0.00,Wunderground v.1.15,2013-06-30 18:32:00,
2013-06-30 11:38:00,95.6,34.9,29.63,NW,324,0.0,0.0,12,0.00,,,0.00,Wunderground v.1.15,2013-06-30 18:38:00,
2013-06-30 11:44:00,95.6,34.9,29.63,SSE,151,0.0,0.0,12,0.00,,,0.00,Wunderground v.1.15,2013-06-30 18:44:00,
2013-06-30 11:49:00,96.1,33.1,29.63,WSW,250,0.0,0.0,11,0.00,,,0.00,Wunderground v.1.15,2013-06-30 18:49:00,
2013-06-30 11:55:00,96.5,33.4,29.63,West,274,0.0,0.0,11,0.00,,,0.00,Wunderground v.1.15,2013-06-30 18:55:00,
2013-06-30 12:00:00,96.7,33.6,29.63,NNW,339,0.0,0.0,11,0.00,,,0.00,Wunderground v.1.15,2013-06-30 19:00:00,
2013-06-30 12:06:00,96.4,33.3,29.62,NW,310,0.0,0.0,11,0.00,,,0.00,Wunderground v.1.15,2013-06-30 19:06:00,
2013-06-30 12:11:00,97.2,33.9,29.62,South,175,0.0,0.0,11,0.00,,,0.00,Wunderground v.1.15,2013-06-30 19:11:00,
2013-06-30 12:17:00,98.2,32.3,29.62,East,89,0.0,0.0,10,0.00,,,0.00,Wunderground v.1.15,2013-06-30 19:17:00,
2013-06-30 12:23:00,97.7,31.9,29.62,SSW,206,0.0,0.0,10,0.00,,,0.00,Wunderground v.1.15,2013-06-30 19:23:00,
2013-06-30 12:28:00,97.6,31.9,29.62,SSW,194,0.0,0.0,10,0.00,,,0.00,Wunderground v.1.15,2013-06-30 19:28:00,
2013-06-30 12:34:00,97.6,31.9,29.61,SSW,198,0.0,0.0,10,0.00,,,0.00,Wunderground v.1.15,2013-06-30 19:34:00,
2013-06-30 12:40:00,97.9,32.1,29.61,ESE,107,0.0,0.0,10,0.00,,,0.00,Wunderground v.1.15,2013-06-30 19:40:00,
2013-06-30 12:45:00,98.2,32.3,29.61,SSW,198,0.0,0.0,10,0.00,,,0.00,Wunderground v.1.15,2013-06-30 19:45:00,
2013-06-30 12:51:00,98.0,32.2,29.61,SSE,153,0.0,0.0,10,0.00,,,0.00,Wunderground v.1.15,2013-06-30 19:51:00,
2013-06-30 12:57:00,98.0,32.2,29.61,SW,227,0.0,0.0,10,0.00,,,0.00,Wunderground v.1.15,2013-06-30 19:57:00,
2013-06-30 13:04:00,98.0,32.2,29.60,West,269,0.0,0.0,10,0.00,,,0.00,Wunderground v.1.15,2013-06-30 20:04:00,
2013-06-30 13:09:00,97.9,32.1,29.60,West,262,0.0,0.0,10,0.00,,,0.00,Wunderground v.1.15,2013-06-30 20:09:00,
2013-06-30 13:15:00,98.5,32.5,29.60,WSW,250,0.0,0.0,10,0.00,,,0.00,Wunderground v.1.15,2013-06-30 20:15:00,
2013-06-30 13:21:00,98.6,32.6,29.60,West,261,0.0,0.0,10,0.00,,,0.00,Wunderground v.1.15,2013-06-30 20:21:00,
2013-06-30 13:26:00,98.2,32.3,29.59,WNW,293,0.0,0.0,10,0.00,,,0.00,Wunderground v.1.15,2013-06-30 20:26:00,
2013-06-30 13:32:00,98.5,32.5,29.59,NE,48,0.0,0.0,10,0.00,,,0.00,Wunderground v.1.15,2013-06-30 20:32:00,
2013-06-30 13:37:00,99.1,33.0,29.59,SSE,161,0.0,0.0,10,0.00,,,0.00,Wunderground v.1.15,2013-06-30 20:37:00,
2013-06-30 13:44:00,99.6,33.4,29.58,SSW,207,0.0,0.0,10,0.00,,,0.00,Wunderground v.1.15,2013-06-30 20:44:00,
2013-06-30 13:49:00,100.2,33.8,29.58,East,79,0.0,0.0,10,0.00,,,0.00,Wunderground v.1.15,2013-06-30 20:49:00,
2013-06-30 13:55:00,100.3,33.9,29.58,East,80,0.0,0.0,10,0.00,,,0.00,Wunderground v.1.15,2013-06-30 20:55:00,
2013-06-30 14:00:00,99.7,33.4,29.58,NNW,334,0.0,0.0,10,0.00,,,0.00,Wunderground v.1.15,2013-06-30 21:00:00,
2013-06-30 14:06:00,100.0,33.7,29.58,South,174,0.0,0.0,10,0.00,,,0.00,Wunderground v.1.15,2013-06-30 21:06:00,
2013-06-30 14:12:00,100.8,31.6,29.57,SW,223,0.0,0.0,9,0.00,,,0.00,Wunderground v.1.15,2013-06-30 21:12:00,
2013-06-30 14:18:00,101.8,32.4,29.57,WSW,245,0.0,0.0,9,0.00,,,0.00,Wunderground v.1.15,2013-06-30 21:18:00,
2013-06-30 14:24:00,100.9,31.7,29.56,West,264,0.0,0.0,9,0.00,,,0.00,Wunderground v.1.15,2013-06-30 21:24:00,
2013-06-30 14:30:00,101.9,29.6,29.56,South,179,0.0,0.0,8,0.00,,,0.00,Wunderground v.1.15,2013-06-30 21:30:00,
2013-06-30 14:36:00,101.3,32.0,29.56,ESE,103,0.0,0.0,9,0.00,,,0.00,Wunderground v.1.15,2013-06-30 21:36:00,
2013-06-30 14:41:00,100.9,31.7,29.56,SSE,165,0.0,0.0,9,0.00,,,0.00,Wunderground v.1.15,2013-06-30 21:41:00,
2013-06-30 14:47:00,101.4,32.1,29.56,SSE,167,0.0,0.0,9,0.00,,,0.00,Wunderground v.1.15,2013-06-30 21:47:00,
2013-06-30 14:53:00,101.6,32.2,29.56,SW,216,0.0,0.0,9,0.00,,,0.00,Wunderground v.1.15,2013-06-30 21:53:00,
2013-06-30 14:58:00,101.2,31.9,29.55,NNE,21,0.0,0.0,9,0.00,,,0.00,Wunderground v.1.15,2013-06-30 21:58:00,
2013-06-30 15:04:00,101.0,31.8,29.55,NE,38,0.0,0.0,9,0.00,,,0.00,Wunderground v.1.15,2013-06-30 22:04:00,
2013-06-30 15:10:00,101.3,32.0,29.55,SE,125,0.0,0.0,9,0.00,,,0.00,Wunderground v.1.15,2013-06-30 22:10:00,
2013-06-30 15:16:00,101.9,32.5,29.55,WNW,289,0.0,0.0,9,0.00,,,0.00,Wunderground v.1.15,2013-06-30 22:16:00,
2013-06-30 15:22:00,101.9,29.6,29.54,WSW,248,0.0,0.0,8,0.00,,,0.00,Wunderground v.1.15,2013-06-30 22:22:00,
2013-06-30 15:28:00,102.9,30.3,29.54,SW,221,0.0,0.0,8,0.00,,,0.00,Wunderground v.1.15,2013-06-30 22:28:00,
2013-06-30 15:33:00,102.9,30.3,29.54,WSW,252,0.0,0.0,8,0.00,,,0.00,Wunderground v.1.15,2013-06-30 22:33:00,
2013-06-30 15:39:00,102.8,30.2,29.54,WSW,258,0.0,0.0,8,0.00,,,0.00,Wunderground v.1.15,2013-06-30 22:39:00,
2013-06-30 15:45:00,103.0,30.4,29.53,WSW,257,0.0,0.0,8,0.00,,,0.00,Wunderground v.1.15,2013-06-30 22:45:00,
2013-06-30 15:51:00,102.8,30.2,29.53,WSW,258,0.0,0.0,8,0.00,,,0.00,Wunderground v.1.15,2013-06-30 22:51:00,
2013-06-30 15:57:00,103.2,27.2,29.53,West,270,0.0,0.0,7,0.00,,,0.00,Wunderground v.1.15,2013-06-30 22:57:00,
2013-06-30 16:02:00,103.2,27.2,29.53,West,260,0.0,0.0,7,0.00,,,0.00,Wunderground v.1.15,2013-06-30 23:02:00,
2013-06-30 16:08:00,102.9,27.0,29.53,NW,314,0.0,0.0,7,0.00,,,0.00,Wunderground v.1.15,2013-06-30 23:08:00,
2013-06-30 16:14:00,103.2,30.5,29.52,SW,226,0.0,0.0,8,0.00,,,0.00,Wunderground v.1.15,2013-06-30 23:14:00,
2013-06-30 16:20:00,102.8,30.2,29.52,SW,221,0.0,0.0,8,0.00,,,0.00,Wunderground v.1.15,2013-06-30 23:20:00,
2013-06-30 16:26:00,102.9,30.3,29.52,SW,223,0.0,0.0,8,0.00,,,0.00,Wunderground v.1.15,2013-06-30 23:26:00,
2013-06-30 16:32:00,103.3,30.6,29.52,SSW,210,0.0,0.0,8,0.00,,,0.00,Wunderground v.1.15,2013-06-30 23:32:00,
2013-06-30 16:37:00,103.1,27.2,29.52,SW,236,0.0,0.0,7,0.00,,,0.00,Wunderground v.1.15,2013-06-30 23:37:00,
2013-06-30 16:42:00,103.3,27.3,29.51,South,173,0.0,0.0,7,0.00,,,0.00,Wunderground v.1.15,2013-06-30 23:42:00,
2013-06-30 16:48:00,103.6,27.5,29.51,SSW,210,0.0,0.0,7,0.00,,,0.00,Wunderground v.1.15,2013-06-30 23:48:00,
2013-06-30 16:54:00,104.0,27.8,29.51,South,172,0.0,0.0,7,0.00,,,0.00,Wunderground v.1.15,2013-06-30 23:54:00,
2013-06-30 16:59:00,103.4,27.4,29.51,South,179,0.0,0.0,7,0.00,,,0.00,Wunderground v.1.15,2013-06-30 23:59:00,
2013-06-30 17:05:00,103.4,30.7,29.51,South,181,0.0,0.0,8,0.00,,,0.00,Wunderground v.1.15,2013-07-01 00:05:00,
2013-06-30 17:10:00,103.6,27.5,29.50,SSE,165,0.0,0.0,7,0.00,,,0.00,Wunderground v.1.15,2013-07-01 00:10:00,
2013-06-30 17:16:00,103.5,30.7,29.50,SSW,203,0.0,0.0,8,0.00,,,0.00,Wunderground v.1.15,2013-07-01 00:16:00,
2013-06-30 17:22:00,103.5,30.7,29.50,SW,224,0.0,0.0,8,0.00,,,0.00,Wunderground v.1.15,2013-07-01 00:22:00,
2013-06-30 17:28:00,103.7,30.9,29.50,SW,223,0.0,0.0,8,0.00,,,0.00,Wunderground v.1.15,2013-07-01 00:28:00,
2013-06-30 17:34:00,103.3,30.6,29.50,SW,217,0.0,0.0,8,0.00,,,0.00,Wunderground v.1.15,2013-07-01 00:34:00,
2013-06-30 17:40:00,103.0,30.4,29.50,SSE,165,0.0,0.0,8,0.00,,,0.00,Wunderground v.1.15,2013-07-01 00:40:00,
2013-06-30 17:46:00,103.1,33.4,29.50,South,187,0.0,0.0,9,0.00,,,0.00,Wunderground v.1.15,2013-07-01 00:46:00,
2013-06-30 17:51:00,103.1,33.4,29.50,West,277,0.0,0.0,9,0.00,,,0.00,Wunderground v.1.15,2013-07-01 00:51:00,
2013-06-30 17:57:00,103.3,27.3,29.50,WNW,293,0.0,0.0,7,0.00,,,0.00,Wunderground v.1.15,2013-07-01 00:57:00,
2013-06-30 18:03:00,103.7,27.6,29.50,West,264,0.0,0.0,7,0.00,,,0.00,Wunderground v.1.15,2013-07-01 01:03:00,
2013-06-30 18:09:00,103.4,27.4,29.50,West,274,0.0,0.0,7,0.00,,,0.00,Wunderground v.1.15,2013-07-01 01:09:00,
2013-06-30 18:14:00,103.4,27.4,29.50,SSW,210,0.0,0.0,7,0.00,,,0.00,Wunderground v.1.15,2013-07-01 01:14:00,
2013-06-30 18:20:00,102.9,38.3,29.50,WSW,239,0.0,0.0,11,0.00,,,0.00,Wunderground v.1.15,2013-07-01 01:20:00,
2013-06-30 18:26:00,102.0,39.8,29.50,SW,235,0.0,0.0,12,0.00,,,0.00,Wunderground v.1.15,2013-07-01 01:26:00,
2013-06-30 18:31:00,101.0,43.0,29.50,SW,235,0.0,0.0,14,0.00,,,0.00,Wunderground v.1.15,2013-07-01 01:31:00,
2013-06-30 18:37:00,100.9,34.4,29.51,WSW,254,0.0,0.0,10,0.00,,,0.00,Wunderground v.1.15,2013-07-01 01:37:00,
2013-06-30 18:43:00,101.0,41.1,29.50,WSW,244,0.0,0.0,13,0.00,,,0.00,Wunderground v.1.15,2013-07-01 01:43:00,
2013-06-30 18:48:00,101.0,36.8,29.51,West,266,0.0,0.0,11,0.00,,,0.00,Wunderground v.1.15,2013-07-01 01:48:00,
2013-06-30 18:54:00,101.2,39.2,29.51,WSW,243,0.0,0.0,12,0.00,,,0.00,Wunderground v.1.15,2013-07-01 01:54:00,
2013-06-30 19:00:00,100.0,42.3,29.51,WSW,248,0.0,0.0,14,0.00,,,0.00,Wunderground v.1.15,2013-07-01 02:00:00,
2013-06-30 19:06:00,99.6,41.9,29.51,WSW,251,0.0,0.0,14,0.00,,,0.00,Wunderground v.1.15,2013-07-01 02:06:00,
2013-06-30 19:11:00,99.2,41.6,29.51,West,263,0.0,0.0,14,0.00,,,0.00,Wunderground v.1.15,2013-07-01 02:11:00,
2013-06-30 19:17:00,99.4,39.9,29.51,WSW,243,0.0,0.0,13,0.00,,,0.00,Wunderground v.1.15,2013-07-01 02:17:00,
2013-06-30 19:18:00,99.3,39.8,29.51,SW,231,0.0,0.0,13,0.00,,,0.00,Wunderground v.1.15,2013-07-01 02:18:00,
2013-06-30 19:23:00,98.9,41.4,29.51,SW,229,0.0,0.0,14,0.00,,,0.00,Wunderground v.1.15,2013-07-01 02:23:00,
2013-06-30 19:29:00,98.3,40.9,29.51,SW,223,0.0,0.0,14,0.00,,,0.00,Wunderground v.1.15,2013-07-01 02:29:00,
2013-06-30 19:34:00,97.8,40.5,29.52,SW,234,0.0,0.0,14,0.00,,,0.00,Wunderground v.1.15,2013-07-01 02:34:00,
2013-06-30 19:40:00,97.6,40.4,29.52,WSW,250,0.0,0.0,14,0.00,,,0.00,Wunderground v.1.15,2013-07-01 02:40:00,
2013-06-30 19:46:00,97.3,38.2,29.52,WSW,248,0.0,0.0,13,0.00,,,0.00,Wunderground v.1.15,2013-07-01 02:46:00,
2013-06-30 19:51:00,97.0,38.0,29.52,WSW,248,0.0,0.0,13,0.00,,,0.00,Wunderground v.1.15,2013-07-01 02:51:00,
2013-06-30 19:57:00,96.7,37.8,29.52,WSW,247,0.0,0.0,13,0.00,,,0.00,Wunderground v.1.15,2013-07-01 02:57:00,
2013-06-30 20:02:00,96.5,37.6,29.53,SW,231,0.0,0.0,13,0.00,,,0.00,Wunderground v.1.15,2013-07-01 03:02:00,
2013-06-30 20:08:00,96.2,35.4,29.53,WSW,248,0.0,0.0,12,0.00,,,0.00,Wunderground v.1.15,2013-07-01 03:08:00,
2013-06-30 20:14:00,96.1,35.3,29.53,West,267,0.0,0.0,12,0.00,,,0.00,Wunderground v.1.15,2013-07-01 03:14:00,
2013-06-30 20:20:00,95.9,35.1,29.53,West,264,0.0,0.0,12,0.00,,,0.00,Wunderground v.1.15,2013-07-01 03:20:00,
2013-06-30 20:26:00,95.5,34.8,29.53,WSW,247,0.0,0.0,12,0.00,,,0.00,Wunderground v.1.15,2013-07-01 03:26:00,
2013-06-30 20:32:00,95.2,36.6,29.54,West,261,0.0,0.0,13,0.00,,,0.00,Wunderground v.1.15,2013-07-01 03:32:00,
2013-06-30 20:37:00,95.0,36.4,29.54,WSW,257,0.0,0.0,13,0.00,,,0.00,Wunderground v.1.15,2013-07-01 03:37:00,
2013-06-30 20:43:00,94.5,36.1,29.54,WSW,245,0.0,0.0,13,0.00,,,0.00,Wunderground v.1.15,2013-07-01 03:43:00,
2013-06-30 20:49:00,94.1,37.6,29.54,WSW,253,0.0,0.0,14,0.00,,,0.00,Wunderground v.1.15,2013-07-01 03:49:00,
2013-06-30 20:54:00,93.9,39.2,29.55,West,264,0.0,0.0,15,0.00,,,0.00,Wunderground v.1.15,2013-07-01 03:54:00,
2013-06-30 21:00:00,93.6,39.0,29.55,WSW,244,0.0,0.0,15,0.00,,,0.00,Wunderground v.1.15,2013-07-01 04:00:00,
2013-06-30 21:01:00,93.6,39.0,29.55,WSW,257,0.0,0.0,15,0.00,,,0.00,Wunderground v.1.15,2013-07-01 04:01:00,
2013-06-30 21:03:00,93.4,38.8,29.56,WSW,252,1.0,8.0,15,0.00,,,0.00,Wunderground v.1.15,2013-07-01 04:03:00,
2013-06-30 21:05:00,93.2,38.7,29.55,West,266,2.0,14.0,15,0.00,,,0.00,Wunderground v.1.15,2013-07-01 04:05:00,
2013-06-30 21:06:00,93.2,40.3,29.56,WSW,257,4.0,14.0,16,0.00,,,0.00,Wunderground v.1.15,2013-07-01 04:06:00,
2013-06-30 21:07:00,93.2,40.3,29.56,West,262,4.0,14.0,16,0.00,,,0.00,Wunderground v.1.15,2013-07-01 04:07:00,
2013-06-30 21:12:00,93.0,40.2,29.56,West,264,10.0,10.0,16,0.00,,,0.00,Wunderground v.1.15,2013-07-01 04:12:00,
2013-06-30 21:18:00,92.4,39.7,29.56,WSW,257,9.0,12.0,16,0.00,,,0.00,Wunderground v.1.15,2013-07-01 04:18:00,
2013-06-30 21:24:00,92.1,41.0,29.56,West,264,6.0,10.0,17,0.00,,,0.00,Wunderground v.1.15,2013-07-01 04:24:00,
2013-06-30 21:30:00,91.6,40.6,29.57,WSW,245,1.0,1.0,17,0.00,,,0.00,Wunderground v.1.15,2013-07-01 04:30:00,
2013-06-30 21:35:00,91.1,40.2,29.57,SW,226,0.0,1.0,17,0.00,,,0.00,Wunderground v.1.15,2013-07-01 04:35:00,
2013-06-30 21:41:00,90.9,40.1,29.57,West,259,0.0,0.0,17,0.00,,,0.00,Wunderground v.1.15,2013-07-01 04:41:00,
2013-06-30 21:47:00,91.1,38.7,29.57,WSW,253,0.0,0.0,16,0.00,,,0.00,Wunderground v.1.15,2013-07-01 04:47:00,
2013-06-30 21:53:00,91.0,38.6,29.57,WSW,252,0.0,0.0,16,0.00,,,0.00,Wunderground v.1.15,2013-07-01 04:53:00,
2013-06-30 21:58:00,91.1,37.0,29.58,WSW,250,0.0,0.0,15,0.00,,,0.00,Wunderground v.1.15,2013-07-01 04:58:00,
2013-06-30 22:04:00,90.7,36.7,29.58,West,259,0.0,0.0,15,0.00,,,0.00,Wunderground v.1.15,2013-07-01 05:04:00,
2013-06-30 22:10:00,90.4,36.5,29.58,West,261,0.0,0.0,15,0.00,,,0.00,Wunderground v.1.15,2013-07-01 05:10:00,
2013-06-30 22:16:00,90.4,36.5,29.58,West,259,0.0,0.0,15,0.00,,,0.00,Wunderground v.1.15,2013-07-01 05:16:00,
2013-06-30 22:21:00,90.1,37.9,29.58,West,260,0.0,0.0,16,0.00,,,0.00,Wunderground v.1.15,2013-07-01 05:21:00,
2013-06-30 22:27:00,89.9,37.7,29.58,West,266,0.0,0.0,16,0.00,,,0.00,Wunderground v.1.15,2013-07-01 05:27:00,
2013-06-30 22:32:00,89.8,37.6,29.58,West,263,0.0,0.0,16,0.00,,,0.00,Wunderground v.1.15,2013-07-01 05:32:00,
2013-06-30 22:38:00,89.6,37.5,29.58,WSW,245,0.0,0.0,16,0.00,,,0.00,Wunderground v.1.15,2013-07-01 05:38:00,
2013-06-30 22:44:00,89.5,37.4,29.58,West,260,0.0,0.0,16,0.00,,,0.00,Wunderground v.1.15,2013-07-01 05:44:00,
2013-06-30 22:50:00,89.3,37.2,29.58,West,259,0.0,0.0,16,0.00,,,0.00,Wunderground v.1.15,2013-07-01 05:50:00,
2013-06-30 22:56:00,89.3,37.2,29.58,WSW,255,0.0,0.0,16,0.00,,,0.00,Wunderground v.1.15,2013-07-01 05:56:00,
2013-06-30 23:02:00,89.3,37.2,29.58,WSW,252,0.0,0.0,16,0.00,,,0.00,Wunderground v.1.15,2013-07-01 06:02:00,
2013-06-30 23:08:00,89.3,37.2,29.58,WSW,257,0.0,0.0,16,0.00,,,0.00,Wunderground v.1.15,2013-07-01 06:08:00,
2013-06-30 23:13:00,89.2,37.1,29.58,West,268,0.0,0.0,16,0.00,,,0.00,Wunderground v.1.15,2013-07-01 06:13:00,
2013-06-30 23:19:00,89.2,35.5,29.59,West,265,0.0,0.0,15,0.00,,,0.00,Wunderground v.1.15,2013-07-01 06:19:00,
2013-06-30 23:25:00,89.2,35.5,29.59,West,266,0.0,0.0,15,0.00,,,0.00,Wunderground v.1.15,2013-07-01 06:25:00,
2013-06-30 23:30:00,88.9,35.3,29.59,WSW,257,0.0,0.0,15,0.00,,,0.00,Wunderground v.1.15,2013-07-01 06:30:00,
2013-06-30 23:36:00,88.7,33.4,29.59,West,260,0.0,0.0,14,0.00,,,0.00,Wunderground v.1.15,2013-07-01 06:36:00,
2013-06-30 23:42:00,88.8,33.4,29.59,West,263,0.0,0.0,14,0.00,,,0.00,Wunderground v.1.15,2013-07-01 06:42:00,
2013-06-30 23:48:00,88.5,33.2,29.59,WSW,243,0.0,0.0,14,0.00,,,0.00,Wunderground v.1.15,2013-07-01 06:48:00,
2013-06-30 23:54:00,86.5,41.9,29.60,SW,221,0.0,0.0,21,0.00,,,0.00,Wunderground v.1.15,2013-07-01 06:54:00,
2013-06-30 23:59:00,85.8,41.3,29.60,SSW,204,0.0,0.0,21,0.00,,,0.00,Wunderground v.1.15,2013-07-01 06:59:00,